Arcata Airport

Airport
ICAO code: 
KACV
Summary
ICAO Region: 
NAM
Territory: 
Location: 
Arcata, California, California
Serving: 
Humboldt County
Coordinates: 
Aerial View: 
40° 58' 15.218" N, 124° 6' 23.493" W
Airport WX: 
Fog
Metar
Observation
KACV 241653Z AUTO 09004KT 10SM CLR 06/02 A3020 RMK AO2 SLP234 T00610022
Station
Arcata / Eureka, Arcata Airport
Date/Time
2022-01-24 16:53:00
Wind direction
90°
Wind speed
04 kts
Lowest cloud amount
n/a
Temperature
6.1°C
Dew point
2.2°C
Humidity
76%
Weather condition
n/a

Arcata Airport, also known as Arcata/Eureka Airport, is an airport located 24 km north of Eureka in the unincorporated town of McKinleyville, California. This regional airport serves Humboldt County, including the two primary regional cities that compose its name: Arcata and Eureka.

Climatology

Dry-summer subtropical ”Mediterranean" climate (Köppen climate classification Csb) - characterized by warm, dry summers and mild winters.

Runways

Designator Length Width Surface Rops
1/19 1371 46 ASP Yes/Yes
14/32 1829 46 ASP Yes/Yes
Airport map: 
Aerial View: 

SKYbrary Partners:

Safety knowledge contributed by: